Weather History for Fort Morgan, CO

Change the Weather History Date:

Thursday, March 20, 2014

  Actual Average (KAKO) Record (KAKO)
Temperature  
Mean Temperature 44 °F 40 °F  
Max Temperature 65 °F 54 °F 81 °F (1997)
Min Temperature 22 °F 27 °F 2 °F (1965)
Degree Days  
Heating Degree Days 22    
Month to date heating degree days  
Cooling Degree Days 0    
Month to date cooling degree days  
Moisture  
Dew Point 14 °F    
Average Humidity 42    
Maximum Humidity 85    
Minimum Humidity 8    
Precipitation  
Precipitation 0.00 in 0.04 in 0.28 in (1962)
Month to date precipitation 0.50  
Year to date precipitation 1.24  
Sea Level Pressure  
Sea Level Pressure 29.90 in    
Wind  
Wind Speed 5 mph (West)    
Max Wind Speed 12 mph    
Max Gust Speed 20 mph    
Visibility 10 miles    
Events      
T = Trace of Precipitation, MM = Missing Value Source: NWS Daily Summary

Daily Weather History Graph

Daily Weather History Graph

Search for Another Location

Airport:

Trip Planner

Search our weather history database for the weather conditions in past years. The results will help you decide how hot, cold, wet, or windy it might be!

Date:

Astronomy

Mar. 20, 2014 Rise Set
Actual Time 6:58 AM MDT 7:07 PM MDT
Civil Twilight 6:31 AM MDT 7:34 PM MDT
Nautical Twilight 5:59 AM MDT 8:06 PM MDT
Astronomical Twilight 5:27 AM MDT 8:38 PM MDT
Moon 11:30 PM MDT (3/20) 9:05 AM MDT (3/20)
Length of Visible Light 13h 03m
Length of Day
12h 08m
Waning Gibbous, 83% of the Moon is Illuminated
Mar 20
Waning Gibbous
Mar 23
Last Quarter
Mar 30
New
Apr 7
First Quarter
Apr 15
Full

Hourly Weather History & Observations

Time (MDT) Temp. Windchill Dew Point Humidity Pressure Visibility Wind Dir Wind Speed Gust Speed Precip Events Conditions
12:15 AM 32.2 °F 26.7 °F 19.8 °F 60% 29.98 in 10.0 mi SSW 5.8 mph - N/A   Clear
12:35 AM 31.1 °F 26.4 °F 19.9 °F 63% 29.98 in 10.0 mi SSW 4.6 mph - N/A   Clear
12:55 AM 32.0 °F 28.7 °F 21.2 °F 64% 29.97 in 10.0 mi SSW 3.5 mph - N/A   Clear
1:15 AM 29.8 °F 23.9 °F 20.5 °F 68% 29.97 in 10.0 mi SW 5.8 mph - N/A   Clear
1:35 AM 29.1 °F 25.4 °F 21.0 °F 72% 29.98 in 10.0 mi West 3.5 mph - N/A   Clear
1:55 AM 27.3 °F 19.9 °F 21.0 °F 77% 29.98 in 10.0 mi West 6.9 mph - N/A   Clear
2:15 AM 27.5 °F 21.1 °F 21.2 °F 77% 29.98 in 10.0 mi WNW 5.8 mph - N/A   Clear
2:35 AM 27.5 °F 21.1 °F 21.0 °F 77% 29.97 in 10.0 mi West 5.8 mph - N/A   Clear
2:55 AM 27.0 °F 18.7 °F 21.2 °F 79% 29.97 in 10.0 mi West 8.1 mph - N/A   Clear
3:15 AM 27.1 °F 18.9 °F 20.8 °F 77% 29.97 in 10.0 mi West 8.1 mph - N/A   Clear
3:35 AM 27.5 °F 21.1 °F 21.2 °F 77% 29.96 in 10.0 mi NW 5.8 mph - N/A   Clear
3:55 AM 27.9 °F 24.0 °F 20.3 °F 73% 29.97 in 10.0 mi SW 3.5 mph - N/A   Clear
4:15 AM 29.1 °F - 21.2 °F 72% 29.97 in 10.0 mi Calm Calm - N/A   Clear
4:35 AM 27.5 °F - 20.5 °F 75% 29.96 in 10.0 mi Calm Calm - N/A   Clear
4:55 AM 23.2 °F - 18.5 °F 82% 29.98 in 10.0 mi Calm Calm - N/A   Clear
5:15 AM 24.4 °F - 19.4 °F 81% 29.98 in 10.0 mi Calm Calm - N/A   Clear
5:35 AM 27.3 °F - 20.1 °F 74% 29.98 in 10.0 mi Calm Calm - N/A   Clear
5:55 AM 25.9 °F - 16.9 °F 69% 29.99 in 10.0 mi Calm Calm - N/A   Clear
6:15 AM 22.6 °F 16.5 °F 17.8 °F 82% 29.99 in 10.0 mi WSW 4.6 mph - N/A   Clear
6:35 AM 22.8 °F 14.5 °F 17.8 °F 81% 29.99 in 10.0 mi West 6.9 mph - N/A   Clear
6:55 AM 22.1 °F 15.9 °F 18.0 °F 84% 29.99 in 10.0 mi WSW 4.6 mph - N/A   Clear
7:15 AM 23.5 °F 15.4 °F 18.1 °F 80% 29.99 in 10.0 mi West 6.9 mph - N/A   Clear
7:35 AM 23.0 °F 13.1 °F 18.7 °F 84% 29.99 in 10.0 mi WSW 9.2 mph - N/A   Clear
7:55 AM 24.8 °F 17.9 °F 20.8 °F 85% 29.99 in 10.0 mi WSW 5.8 mph - N/A   Clear
8:15 AM 28.9 °F 22.8 °F 23.9 °F 81% 29.98 in 10.0 mi West 5.8 mph - N/A   Clear
8:35 AM 33.1 °F - 24.6 °F 71% 29.98 in 10.0 mi Calm Calm - N/A   Clear
8:55 AM 37.0 °F - 25.7 °F 64% 29.98 in 10.0 mi Calm Calm - N/A   Clear
9:15 AM 38.3 °F 35.9 °F 25.7 °F 61% 29.98 in 10.0 mi South 3.5 mph - N/A   Clear
9:35 AM 36.9 °F - 22.6 °F 56% 29.98 in 10.0 mi Calm Calm - N/A   Clear
9:55 AM 40.3 °F 37.1 °F 20.3 °F 45% 29.97 in 10.0 mi SSE 4.6 mph - N/A   Clear
10:15 AM 41.2 °F - 19.6 °F 42% 29.97 in 10.0 mi Calm Calm - N/A   Clear
10:35 AM 44.2 °F 42.7 °F 19.4 °F 37% 29.97 in 10.0 mi SE 3.5 mph - N/A   Clear
11:15 AM 51.3 °F - 21.2 °F 31% 29.96 in 10.0 mi ESE 4.6 mph - N/A   Clear
11:35 AM 52.9 °F - 19.6 °F 27% 29.94 in 10.0 mi ESE 6.9 mph - N/A   Clear
11:55 AM 56.5 °F - 13.6 °F 18% 29.92 in 10.0 mi SSE 11.5 mph - N/A   Clear
12:15 PM 58.8 °F - 7.9 °F 13% 29.91 in 10.0 mi SSE 10.4 mph 16.1 mph N/A   Clear
12:35 PM 58.5 °F - 6.4 °F 13% 29.91 in 10.0 mi SSE 8.1 mph - N/A   Clear
12:55 PM 61.7 °F - 5.5 °F 11% 29.89 in 10.0 mi South 10.4 mph 18.4 mph N/A   Clear
1:15 PM 63.3 °F - 5.2 °F 10% 29.89 in 10.0 mi South 3.5 mph 18.4 mph N/A   Clear
1:35 PM 64.4 °F - 4.5 °F 9% 29.87 in 10.0 mi SSW 11.5 mph - N/A   Clear
1:55 PM 64.8 °F - 5.5 °F 10% 29.87 in 10.0 mi WSW 6.9 mph 19.6 mph N/A   Clear
2:15 PM 65.7 °F - 7.7 °F 10% 29.85 in 10.0 mi SW 8.1 mph - N/A   Clear
2:35 PM 65.5 °F - 6.6 °F 10% 29.84 in 10.0 mi SSE 9.2 mph - N/A   Clear
2:55 PM 65.8 °F - 7.0 °F 10% 29.83 in 10.0 mi East 5.8 mph - N/A   Clear
3:15 PM 65.8 °F - 6.8 °F 10% 29.82 in 10.0 mi WSW 4.6 mph - N/A   Clear
3:35 PM 64.6 °F - 3.4 °F 9% 29.82 in 10.0 mi WNW 4.6 mph - N/A   Clear
3:55 PM 64.8 °F - 5.2 °F 10% 29.82 in 10.0 mi WSW 5.8 mph - N/A   Clear
4:15 PM 64.8 °F - 4.5 °F 9% 29.82 in 10.0 mi WNW 6.9 mph - N/A   Clear
4:35 PM 64.0 °F - 1.9 °F 8% 29.81 in 10.0 mi Calm Calm - N/A   Clear
4:55 PM 63.5 °F - 4.6 °F 10% 29.81 in 10.0 mi NNW 4.6 mph - N/A   Clear
5:15 PM 62.4 °F - 7.3 °F 11% 29.80 in 10.0 mi NW 3.5 mph - N/A   Clear
5:35 PM 61.2 °F - 10.2 °F 13% 29.80 in 10.0 mi NNW 5.8 mph - N/A   Clear
5:55 PM 58.8 °F - 14.0 °F 17% 29.80 in 10.0 mi North 9.2 mph - N/A   Clear
6:15 PM 57.2 °F - 11.7 °F 17% 29.81 in 10.0 mi North 8.1 mph - N/A   Clear
6:35 PM 55.4 °F - 9.3 °F 16% 29.80 in 10.0 mi North 10.4 mph - N/A   Clear
6:55 PM 54.5 °F - 9.3 °F 16% 29.81 in 10.0 mi North 9.2 mph - N/A   Clear
7:15 PM 52.5 °F - 9.7 °F 18% 29.81 in 10.0 mi North 9.2 mph - N/A   Clear
7:35 PM 49.8 °F - 10.9 °F 21% 29.81 in 10.0 mi North 8.1 mph - N/A   Clear
7:55 PM 51.1 °F - 8.4 °F 18% 29.81 in 10.0 mi North 6.9 mph - N/A   Clear
8:15 PM 50.7 °F - 7.7 °F 18% 29.81 in 10.0 mi North 6.9 mph - N/A   Clear
8:35 PM 50.4 °F - 9.0 °F 19% 29.82 in 10.0 mi North 9.2 mph - N/A   Clear
8:55 PM 49.1 °F - 11.1 °F 22% 29.82 in 10.0 mi North 10.4 mph - N/A   Clear
9:15 PM 48.7 °F - 11.1 °F 22% 29.83 in 10.0 mi North 8.1 mph - N/A   Clear
9:35 PM 47.1 °F - 11.3 °F 24% 29.83 in 10.0 mi North 6.9 mph - N/A   Clear
9:55 PM 45.9 °F 43.6 °F 10.6 °F 24% 29.83 in 10.0 mi NE 4.6 mph - N/A   Clear
10:15 PM 46.4 °F - 10.8 °F 24% 29.83 in 10.0 mi Calm Calm - N/A   Clear
10:35 PM 40.6 °F 38.6 °F 11.7 °F 31% 29.84 in 10.0 mi SSE 3.5 mph - N/A   Clear
10:55 PM 42.8 °F 40.1 °F 11.8 °F 28% 29.85 in 10.0 mi SW 4.6 mph - N/A   Clear
11:15 PM 40.5 °F 35.8 °F 13.5 °F 33% 29.85 in 10.0 mi WSW 6.9 mph - N/A   Clear
11:35 PM 40.5 °F 37.3 °F 13.1 °F 33% 29.83 in 10.0 mi WSW 4.6 mph - N/A   Clear
11:55 PM 44.1 °F - 10.6 °F 26% 29.84 in 10.0 mi Calm Calm - N/A   Clear